RH
87 74 86 93 95 92 89 87 83 74 85 88 98 96 95 85 86 87 84 80 74 74 70 67 70 77 84 85 87 87 89 87 75 62 75 75 75 72 64 69 58 73 82
84 67 89 86 88 90 94 86 76 84 96 96 88 88 98 100 94 82 78 82 82 82 81 81 81 80 72 62 74 76 77 80 82 78 82 83 83 76 70 75 75 83 77
85 74 87 80 84 90 93 91 95 97 89 90 92 100 98 92 87 84 83 84 84 84 88 87 88 88 86 83 38 27 29 39 71 80 61 74 89 77 72 78 82 83 91
83 82 81 84 90 91 91 96 99 98 98 91 84 90 87 83 84 86 86 86 86 87 87 89 89 86 83 81 53 35 31 24 35 41 60 77 84 77 88 85 92 95 91
89 86 76 85 90 89 94 98 98 100 86 75 82 84 86 86 87 86 87 91 89 88 90 89 86 87 84 55 56 65 63 52 40 37 47 59 70 89 95 95 91 94 91
97 89 80 86 89 93 98 98 99 86 80 85 86 90 86 88 87 92 89 87 86 87 86 85 82 86 80 44 65 69 63 52 47 61 65 64 66 93 96 96 94 94 97
98 89 84 89 92 93 98 98 90 86 85 88 88 88 90 90 90 88 86 84 84 84 85 80 83 83 70 51 64 64 75 65 69 70 76 76 87 97 96 97 96 97 99
91 90 89 91 94 95 98 94 83 85 88 89 89 88 88 85 85 84 82 81 80 79 78 80 81 63 46 64 57 65 70 73 68 74 84 91 91 93 96 97 96 95 95
90 90 94 98 98 93 83 83 83 89 91 90 91 89 85 84 83 81 78 77 78 77 71 50 35 31 55 54 51 62 64 64 64 70 73 80 71 95 97 95 95 92 94
91 95 100 100 98 85 80 79 84 87 86 86 54 44 39 44 36 37 29 48 48 34 28 27 29 39 53 51 51 55 56 56 62 68 71 74 76 79 92 96 94 90 89
98 99 100 100 91 81 78 84 81 78 56 33 32 40 40 33 24 19 20 20 22 24 33 47 53 54 53 53 53 52 52 52 56 75 92 89 92 92 95 95 94 93 87
100 100 97 96 84 79 77 73 68 50 34 35 39 44 42 35 20 18 25 31 35 42 46 47 49 53 56 55 52 53 52 53 63 84 89 93 90 92 91 90 87 88 80
100 99 91 86 82 75 70 63 42 38 34 41 44 38 36 30 35 33 33 36 36 42 48 48 54 58 57 56 54 54 55 54 56 82 84 83 88 86 83 84 79 82 81
100 96 82 76 75 70 55 48 46 52 49 45 38 34 32 35 34 33 35 36 36 40 47 52 55 57 56 56 56 55 54 56 53 48 71 75 80 80 84 84 83 82 81
100 88 72 70 67 56 60 50 53 49 47 42 35 34 34 34 34 34 35 36 36 37 44 51 54 56 58 59 58 57 52 52 54 37 29 32 47 76 75 76 77 79 81
91 78 67 60 53 51 46 46 45 44 44 40 36 34 34 34 33 34 35 36 36 35 38 46 54 59 60 61 62 60 54 50 51 52 50 39 33 43 73 75 77 78 80
93 71 58 53 48 44 42 42 42 43 43 40 36 35 35 34 35 35 36 35 35 36 35 39 46 55 60 62 61 59 56 51 51 52 52 50 49 45 35 47 63 73 76
92 84 70 58 48 45 42 41 41 41 38 35 35 35 35 36 37 38 38 37 36 37 37 37 37 39 50 54 59 57 58 56 53 55 55 55 52 50 48 42 37 36 59
95 89 81 84 54 48 45 42 41 40 39 39 35 35 36 34 36 36 37 36 36 37 36 37 38 38 39 39 41 58 60 60 58 57 58 58 59 53 52 52 49 47 41
98 97 93 86 86 59 50 45 40 39 40 38 36 34 32 33 36 37 36 36 39 38 36 39 36 38 38 37 37 36 54 60 63 62 60 60 62 62 60 58 56 54 51
100 100 98 97 92 85 66 47 43 42 42 42 43 40 35 32 35 36 36 37 42 42 41 42 40 43 45 41 44 45 43 46 57 64 64 62 64 64 65 64 61 59 58
99 100 100 98 98 88 69 55 50 45 44 44 45 45 42 42 38 41 41 39 45 46 43 44 46 48 47 46 44 54 65 53 51 58 63 64 65 66 66 66 66 65 63
99 99 98 96 95 86 77 67 56 51 50 50 50 48 46 46 43 45 47 49 50 50 52 52 51 49 55 53 48 48 67 68 59 53 60 61 56 57 59 64 67 66 64
100 94 89 86 84 74 64 60 59 62 57 56 54 52 51 50 48 52 54 55 54 55 60 60 54 53 55 56 57 54 52 52 66 58 50 49 54 54 54 57 53 59 58
100 100 96 94 90 84 80 75 68 59 57 57 57 57 56 57 56 53 55 58 60 61 61 60 61 52 55 57 62 58 57 55 55 65 70 56 51 50 51 51 51 52 53
100 100 99 98 90 87 85 85 77 68 66 62 62 63 64 63 62 61 60 61 62 63 60 59 57 59 63 62 61 62 60 58 60 64 75 70 66 54 55 55 56 54 54
Wind_Speed
28 30 26 23 21 21 19 18 18 17 16 15 15 16 15 13 11 9 10 9 8 8 7 6 6 6 6 7 8 8 6 8 10 10 11 12 13 12 10 11 11 11 11
39 33 28 26 24 22 20 19 19 17 15 18 15 13 13 12 11 9 9 11 11 12 11 11 10 10 7 5 4 3 3 6 8 8 6 7 11 10 10 8 10 10 10
40 35 30 28 26 23 20 18 18 20 18 16 12 13 12 12 11 12 13 13 13 12 12 12 12 11 10 9 7 5 5 5 6 7 8 6 9 10 10 9 7 7 7
39 36 30 29 26 24 22 22 20 19 16 13 11 12 12 12 12 13 13 13 13 12 12 12 12 12 11 11 12 12 12 10 9 10 12 10 8 10 9 7 6 6 6
36 34 31 30 26 25 23 21 19 17 14 12 13 14 13 13 13 13 14 13 12 12 12 12 12 12 11 13 15 16 13 13 13 12 12 11 9 11 10 10 8 8 8
35 33 32 30 26 25 24 21 18 16 15 15 15 15 14 14 13 13 13 13 13 13 12 12 12 12 12 15 16 15 14 14 17 16 13 12 11 11 10 12 12 11 12
34 34 32 29 27 23 21 19 18 17 16 16 16 15 15 14 14 13 13 13 13 13 13 13 12 12 13 17 17 20 22 20 17 16 17 16 13 12 14 15 15 16 17
35 34 31 28 26 23 21 20 18 18 17 16 16 15 15 14 13 13 13 13 13 13 13 13 13 14 16 19 20 21 17 17 18 17 18 20 18 16 15 14 15 16 15
37 35 30 29 26 22 20 20 19 19 18 17 16 15 15 14 14 12 14 13 13 13 13 15 16 18 20 19 20 20 18 15 14 15 14 16 11 14 14 15 15 15 15
38 33 32 29 26 21 22 21 20 19 19 17 16 14 14 14 14 12 13 13 12 14 16 19 20 21 19 19 18 16 15 12 11 13 11 10 9 10 13 15 15 14 13
36 35 31 29 25 23 23 22 21 19 17 17 18 16 13 11 11 13 14 15 16 17 19 20 22 21 18 16 15 12 10 11 11 17 17 14 16 16 15 16 15 14 12
31 35 31 27 25 24 23 20 18 16 17 18 17 15 12 10 12 16 16 17 19 19 16 14 12 11 14 14 14 12 11 12 13 17 18 16 14 13 11 10 11 11 10
32 31 31 28 26 24 23 20 18 17 18 16 12 14 10 11 11 12 13 14 14 14 13 12 13 14 13 13 11 13 12 11 12 12 12 11 11 10 9 10 9 9 9
29 28 33 30 25 21 23 19 19 16 14 12 12 11 12 11 11 9 11 10 12 11 12 14 15 14 14 12 10 9 10 10 11 8 6 6 9 11 11 10 10 10 11
29 28 37 32 26 25 21 19 17 17 15 15 13 11 9 12 11 11 10 9 11 12 11 11 11 12 12 11 9 7 7 7 8 10 9 8 10 12 12 11 11 11 11
30 31 35 32 29 27 24 23 21 20 18 17 14 13 11 12 12 11 10 10 11 11 11 12 11 10 11 8 8 7 7 6 6 7 8 9 9 10 11 10 10 10 10
23 33 33 32 30 29 25 24 22 21 18 19 18 14 14 13 12 12 10 10 11 11 11 11 10 10 10 8 8 7 8 6 3 4 4 5 6 7 7 8 8 9 9
31 27 23 20 27 25 24 22 21 19 18 18 19 17 15 15 13 13 10 9 10 10 10 11 10 9 8 7 7 6 5 6 6 2 2 1 2 3 4 6 6 7 8
32 30 27 21 26 25 21 21 20 18 17 17 17 16 15 15 14 12 11 10 9 9 9 9 9 7 6 5 4 6 6 6 6 4 5 3 3 2 3 3 4 5 6
30 31 27 23 19 22 19 17 18 18 15 15 16 16 16 16 14 12 11 10 9 8 9 7 7 6 4 3 5 5 7 6 7 8 7 7 5 4 4 4 3 4 5
22 27 30 30 19 20 22 19 19 19 19 16 13 13 14 15 14 12 11 10 9 7 7 6 6 5 5 1 2 3 7 7 9 9 9 9 8 7 5 5 6 5 6
21 22 25 25 20 20 20 20 17 16 18 16 15 12 12 12 13 11 10 10 9 8 7 6 5 5 3 1 2 1 2 2 8 10 10 10 8 9 7 6 8 8 9
22 22 23 25 24 19 13 16 15 16 14 15 16 14 13 13 10 10 9 9 8 7 6 5 4 3 4 2 1 2 2 2 3 3 11 9 8 7 7 8 9 9 9
23 26 28 29 23 20 19 17 17 17 13 11 17 16 14 11 9 10 10 10 8 8 7 5 5 3 3 3 3 2 1 1 1 2 3 8 7 7 8 9 9 9 10
24 27 28 30 27 23 25 16 8 8 8 10 12 12 13 11 10 11 10 11 9 8 7 7 6 5 5 4 3 3 4 4 4 2 2 3 3 9 8 11 9 10 9
24 27 29 29 32 27 27 30 26 17 2 7 9 10 12 11 10 9 9 10 9 10 9 8 7 6 5 5 6 6 6 3 3 5 2 5 6 8 5 10 9 9 7
Wind_Direction
165 160 154 147 142 137 134 132 130 127 126 120 118 111 108 108 108 100 94 86 75 70 70 72 73 78 87 101 81 65 52 59 69 77 72 68 60 53 68 61 57 59 53
160 157 153 147 142 137 136 132 129 127 126 124 121 126 117 108 107 100 91 86 80 76 73 72 72 73 80 89 99 117 83 74 76 79 68 71 65 48 51 60 58 56 50
152 152 154 146 140 138 139 142 140 130 134 136 132 114 111 109 104 99 95 90 86 83 78 75 75 75 73 74 73 70 72 83 98 70 24 84 70 51 41 45 47 47 40
150 152 152 147 146 146 141 135 132 135 133 136 128 118 111 107 103 99 94 91 88 85 81 76 71 70 70 68 71 74 75 79 93 68 61 83 67 43 41 46 40 49 32
149 153 151 149 152 148 144 139 133 130 135 132 125 118 113 109 103 99 98 93 88 84 82 75 72 67 68 78 84 78 73 84 85 78 64 66 66 51 53 60 68 54 49
149 155 152 154 153 152 143 136 134 134 133 127 123 118 115 112 107 103 97 94 89 87 82 76 72 70 72 92 89 65 61 94 91 88 77 72 69 64 67 70 72 70 66
154 155 155 157 156 154 147 147 138 135 131 129 125 120 117 113 109 104 100 96 93 91 87 81 76 74 81 99 83 66 90 105 99 92 82 76 72 75 69 66 70 66 61
154 157 158 158 158 156 153 142 140 135 132 130 126 122 119 114 110 107 101 98 95 93 90 85 81 84 94 96 81 76 89 91 91 89 80 71 66 64 68 70 67 63 60
155 156 159 158 156 156 150 145 140 138 135 131 128 124 121 117 111 108 102 99 97 95 92 88 87 92 101 91 80 84 91 86 90 80 74 65 66 64 67 71 68 63 57
156 157 157 158 155 156 148 147 146 146 141 140 133 126 123 123 116 111 104 102 101 98 96 93 92 98 90 87 80 82 83 83 87 95 87 80 69 62 60 67 69 64 54
151 157 159 159 159 158 151 152 154 152 142 132 124 115 110 106 110 105 101 99 98 98 102 99 97 96 91 84 83 85 74 64 90 107 90 87 85 80 75 74 70 67 55
144 154 164 162 161 159 158 158 155 147 140 133 127 127 122 103 110 106 103 97 96 99 98 97 96 99 97 91 84 86 77 70 106 111 94 82 78 73 68 62 55 48 38
148 151 164 165 165 164 158 157 150 143 141 134 139 136 132 129 111 110 115 105 102 103 102 99 104 90 93 99 101 80 82 71 93 109 97 90 75 67 61 57 49 49 42
150 154 158 163 163 161 157 155 148 147 148 146 144 146 145 135 123 108 115 107 110 107 104 100 109 100 101 101 101 96 78 74 71 100 107 89 73 69 67 65 63 59 55
147 155 159 159 158 154 152 151 154 155 160 158 154 155 148 141 137 134 130 131 121 119 120 119 112 112 116 110 105 96 92 77 73 76 84 84 82 76 73 70 67 64 61
143 147 154 157 159 156 160 162 163 166 167 164 157 154 159 153 147 141 138 140 133 128 123 123 120 122 124 125 116 111 105 99 91 85 82 78 72 76 77 73 70 66 61
154 157 161 165 164 164 158 164 166 170 175 172 168 159 162 162 153 146 149 145 136 134 129 133 131 134 132 136 133 132 131 126 118 99 84 79 73 64 66 73 71 65 61
168 167 157 162 164 163 160 165 165 170 172 169 171 173 170 161 157 153 159 156 152 148 145 137 134 138 149 151 164 162 168 154 159 151 149 89 56 57 46 46 51 52 54
182 173 165 177 159 160 159 163 166 173 175 175 172 170 171 164 164 167 168 164 156 153 145 144 139 146 148 158 151 176 183 189 188 196 211 236 291 317 341 12 25 29 32
189 187 175 159 165 152 160 168 170 168 175 176 175 171 169 165 166 170 168 167 162 153 150 150 148 156 154 168 195 196 208 217 211 212 220 230 268 298 319 310 324 343 357
179 177 173 173 166 165 170 172 173 173 174 178 180 174 174 169 168 170 170 171 167 168 163 164 162 161 158 164 184 218 228 222 226 226 222 227 247 262 292 317 312 319 323
170 174 175 171 165 179 186 166 183 186 182 178 177 180 180 180 172 169 175 175 180 181 182 177 180 170 162 92 142 121 22 258 235 231 224 224 240 243 254 288 308 309 319
164 167 173 168 170 168 192 193 191 194 190 181 174 178 187 195 179 178 183 186 189 191 198 201 202 198 171 167 79 147 84 228 320 248 220 222 239 242 261 273 277 272 298
178 184 186 172 167 150 161 191 189 197 188 204 195 187 189 198 192 189 194 199 199 208 213 221 224 226 224 186 193 212 194 173 168 334 228 233 232 248 266 267 274 270 279
176 176 180 174 176 167 159 170 171 182 194 225 206 196 193 198 205 208 208 211 212 214 224 225 231 234 227 217 212 202 224 211 228 174 273 297 227 254 276 262 254 266 275
177 178 179 181 182 179 172 171 195 165 298 238 215 201 197 197 208 217 223 228 227 226 226 228 235 232 234 238 236 231 226 198 215 221 234 271 268 289 261 291 274 283 278